Date,TemperatureHighF,TemperatureAvgF,TemperatureLowF,DewpointHighF,DewpointAvgF,DewpointLowF,HumidityHigh,HumidityAvg,HumidityLow,PressureMaxIn,PressureMinIn,WindSpeedMaxMPH,WindSpeedAvgMPH,GustSpeedMaxMPH,PrecipitationSumIn
2013-1-20,23.4,19.2,15.6,6.0,5.1,4.0,66,56,44,30.29,30.28,1,0,5,0.00
2013-1-21,46.7,32.3,14.1,10.0,2.5,-10.0,64,32,12,30.29,30.15,9,2,17,0.00
2013-1-22,52.6,41.8,28.1,-1.0,-15.1,-27.0,29,10,3,30.15,30.00,14,3,28,0.00
2013-1-23,50.7,42.6,32.1,6.0,-8.8,-30.0,31,12,4,30.15,30.07,10,3,18,0.00
2013-1-24,49.0,39.0,27.3,21.0,6.1,-8.0,69,29,11,30.09,29.90,12,2,34,0.00
2013-1-25,44.6,31.6,19.2,24.0,20.7,14.0,86,65,44,30.18,30.09,6,1,18,0.00
2013-1-26,45.8,35.4,24.0,28.0,22.8,16.0,94,63,30,30.14,29.71,8,1,25,0.00
2013-1-27,40.8,34.0,23.7,29.0,22.2,14.0,95,65,38,29.79,29.66,9,1,25,0.04
2013-1-28,42.3,29.6,17.3,22.0,14.1,9.0,87,55,33,29.74,29.52,9,2,21,0.00
2013-1-29,20.5,11.3,-0.4,14.0,-3.1,-13.0,87,56,23,30.18,29.65,9,1,12,0.00
2013-1-30,25.9,18.1,2.2,12.0,2.2,-12.0,65,51,32,30.19,30.07,15,3,26,0.00
2013-1-31,30.1,26.0,23.6,15.0,10.9,7.0,65,53,38,30.23,30.04,18,5,23,0.00
2013-2-1,31.1,27.2,25.2,19.0,12.6,10.0,71,55,43,30.24,30.12,16,4,35,0.00
2013-2-2,46.1,30.2,17.2,10.0,3.3,-10.0,60,37,10,30.38,30.23,13,1,28,0.00
2013-2-3,45.7,28.0,16.2,6.0,-0.6,-14.0,61,35,8,30.33,30.01,3,0,14,0.00
2013-2-4,41.4,30.7,23.4,12.0,5.2,0.0,52,35,20,30.10,29.89,12,1,18,0.00
2013-2-5,45.8,35.1,22.2,19.0,14.6,7.0,59,44,34,30.09,29.86,7,2,18,0.00
2013-2-6,39.8,31.9,21.0,25.0,18.5,9.0,88,59,42,30.07,29.79,5,1,10,0.00
2013-2-7,39.8,21.7,6.3,12.0,-0.5,-21.0,93,47,8,30.28,30.08,5,0,10,0.00
2013-2-8,41.7,23.6,11.7,9.0,-1.1,-8.0,65,37,15,30.25,29.88,2,0,7,0.00
2013-2-9,30.7,19.2,9.6,19.0,12.8,6.0,94,77,49,29.88,29.62,4,0,7,0.00
2013-2-10,21.2,15.8,7.2,12.0,6.0,-2.0,88,67,37,30.21,29.71,6,0,8,0.00
2013-2-11,20.8,9.3,-3.2,13.0,4.6,-7.0,88,81,66,30.36,30.20,3,0,6,0.00
2013-2-12,32.1,12.9,-5.7,5.0,-1.5,-10.0,90,58,27,30.47,30.36,4,0,15,0.02
2013-2-13,36.2,25.2,16.9,12.0,5.7,2.0,59,44,24,30.38,30.07,9,2,18,0.00
2013-2-14,30.9,18.4,5.0,16.0,7.6,2.0,87,66,30,30.39,30.05,5,1,18,0.00
2013-2-15,28.7,18.0,1.1,9.0,3.2,-4.0,92,57,25,30.58,30.41,8,1,16,0.00
2013-2-16,44.0,34.0,25.8,12.0,4.8,-8.0,47,31,11,30.46,29.93,13,4,26,0.01
2013-2-17,41.9,33.5,21.7,12.0,-0.1,-8.0,52,26,14,29.95,29.57,16,3,22,0.00
2013-2-18,23.6,16.2,2.2,8.0,-1.7,-9.0,64,47,23,30.27,29.66,9,1,16,0.00
2013-2-19,39.9,21.7,-0.1,3.0,-8.7,-31.0,66,33,6,30.30,29.95,4,0,10,0.00
2013-2-20,34.0,19.9,10.6,16.0,7.6,0.0,89,62,30,29.93,29.73,3,0,9,0.00
2013-2-21,25.4,15.3,3.7,17.0,11.1,1.0,91,84,67,30.05,29.78,2,0,5,0.00
2013-2-22,27.3,15.3,3.5,15.0,7.9,-2.0,91,74,47,30.13,30.02,5,0,10,0.00
2013-2-23,35.3,23.4,12.9,17.0,8.3,-3.0,85,54,37,30.02,29.78,14,2,18,0.00
2013-2-24,19.2,14.5,-2.9,15.0,10.6,-6.0,90,84,74,30.30,29.79,2,0,8,0.00
2013-2-25,34.6,14.7,-5.5,15.0,3.9,-9.0,89,67,30,30.40,30.10,5,0,11,0.06
2013-2-26,26.7,18.6,8.0,18.0,10.6,0.0,89,72,56,30.31,29.93,7,1,7,0.00
2013-2-27,28.9,10.4,-6.1,6.0,-3.5,-10.0,88,58,21,30.57,30.32,7,1,15,0.00
2013-2-28,33.1,20.4,0.7,9.0,0.5,-7.0,71,44,26,30.60,30.42,8,2,17,0.02
2013-3-1,40.6,28.2,9.3,19.0,9.2,-4.0,71,46,28,30.47,30.40,8,2,16,0.04
2013-3-2,49.7,37.0,27.4,20.0,16.9,12.0,62,46,22,30.41,30.03,7,1,14,0.00
2013-3-3,44.9,37.9,30.1,28.0,19.1,12.0,93,50,31,30.01,29.55,20,4,35,0.00
2013-3-4,34.5,22.0,1.3,26.0,12.5,-5.0,89,68,40,30.29,29.62,6,1,13,0.00
2013-3-5,48.2,24.3,-0.6,6.0,-3.5,-18.0,79,39,6,30.50,30.29,5,1,15,0.10
2013-3-6,50.6,41.9,23.3,12.0,6.7,-8.0,37,24,16,30.33,29.75,11,3,21,0.00
2013-3-7,53.1,40.2,23.0,19.0,11.8,4.0,73,35,14,29.89,29.72,18,2,19,0.00
2013-3-8,47.8,30.5,20.2,25.0,17.7,11.0,96,63,27,29.92,29.72,3,0,6,0.00
2013-3-9,29.0,23.1,7.5,25.0,18.4,4.0,96,82,63,30.18,29.64,0,0,1,0.00
2013-3-10,40.0,23.8,1.4,13.0,6.6,-2.0,86,52,26,30.33,30.19,7,1,14,0.11
2013-3-11,35.7,30.1,20.4,22.0,15.0,8.0,92,56,36,30.18,29.94,12,3,21,0.00
2013-3-12,39.5,28.3,17.1,25.0,19.0,15.0,94,71,43,30.33,30.12,23,2,23,0.13
2013-3-13,49.2,40.7,33.1,23.0,18.1,15.0,58,41,26,30.33,30.17,14,2,26,0.00
2013-3-14,53.7,44.8,35.3,20.0,15.8,9.0,51,32,22,30.24,30.07,11,2,15,0.00
2013-3-15,59.3,47.8,37.0,25.0,17.9,12.0,49,32,19,30.09,29.73,11,2,17,0.00
2013-3-16,44.7,35.6,25.3,36.0,22.9,14.0,89,63,35,29.80,29.68,5,1,18,0.03
2013-3-17,35.6,29.8,21.1,26.0,16.7,-2.0,86,60,37,29.84,29.52,11,2,21,0.00
2013-3-18,29.6,23.0,15.4,14.0,5.7,-7.0,71,49,32,30.12,29.84,12,3,23,0.00
2013-3-19,38.1,28.2,14.6,8.0,-5.3,-19.0,67,26,8,30.39,30.10,10,2,25,0.00
2013-3-20,47.8,29.6,10.0,23.0,9.4,-3.0,75,46,18,30.35,29.81,14,3,31,0.00
2013-3-21,42.6,33.0,24.6,28.0,15.7,-4.0,81,51,24,29.82,29.49,15,3,26,0.01
2013-3-22,35.5,22.4,13.6,19.0,8.5,-2.0,91,60,26,30.00,29.74,6,1,15,0.00
2013-3-23,15.1,10.2,-2.5,13.0,5.5,-6.0,90,81,69,30.43,29.96,0,0,0,0.00
2013-3-24,20.6,5.6,-9.6,4.0,-3.6,-14.0,86,68,34,30.59,30.43,0,0,0,0.00
2013-3-25,30.2,11.3,-7.1,14.0,-0.2,-11.0,89,64,25,30.60,30.52,0,0,0,0.00
2013-3-26,44.9,25.1,0.6,24.0,12.5,-4.0,90,63,34,30.54,30.17,11,1,21,0.19
2013-3-27,46.4,32.8,22.4,28.0,21.9,16.0,92,69,35,30.19,30.06,5,1,11,0.07
2013-3-28,51.3,33.9,21.3,25.0,20.7,16.0,86,63,30,30.22,30.12,6,1,11,0.00
2013-3-29,45.5,36.0,25.9,35.0,26.4,21.0,93,70,48,30.20,30.10,13,1,17,0.06
2013-3-30,49.8,38.5,27.4,31.0,22.6,16.0,94,55,32,30.16,30.02,11,2,19,0.00
2013-3-31,54.4,37.7,18.5,28.0,14.5,-8.0,92,48,9,30.15,30.02,7,1,15,0.00
2013-4-1,42.8,31.1,19.5,30.0,24.0,17.0,96,77,53,30.14,30.00,2,0,9,0.00
2013-4-2,35.2,30.0,25.8,32.0,28.6,25.0,97,94,87,30.17,30.05,2,0,4,0.02
2013-4-3,49.2,34.3,15.4,35.0,24.1,14.0,98,71,28,30.23,30.13,3,0,12,0.65
2013-4-4,53.8,43.3,25.9,28.0,21.8,16.0,83,47,26,30.21,29.98,7,1,12,0.00
2013-4-5,56.5,44.0,34.0,32.0,21.7,17.0,85,43,25,29.98,29.58,15,2,23,0.03
2013-4-6,50.0,40.6,28.8,29.0,19.4,12.0,74,44,27,29.86,29.71,10,2,23,0.00
2013-4-7,49.5,38.9,29.9,30.0,23.2,17.0,93,55,30,29.79,29.66,12,2,21,0.04
2013-4-8,52.6,37.3,24.2,31.0,24.2,16.0,94,63,33,29.70,29.41,5,1,10,0.00
2013-4-9,23.7,11.7,1.2,22.0,7.7,-2.0,93,84,72,30.31,29.61,4,0,4,0.00
2013-4-10,31.0,13.7,-7.2,21.0,7.2,-11.0,88,76,52,30.45,30.15,5,1,18,0.06
2013-4-11,42.9,34.4,26.5,28.0,20.6,13.0,95,59,40,30.15,29.84,12,2,22,0.12
2013-4-12,44.6,31.8,25.4,28.0,23.4,10.0,95,75,25,29.99,29.84,7,1,15,0.02
2013-4-13,50.7,38.9,22.3,31.0,19.9,10.0,96,52,24,29.94,29.41,24,4,35,0.00
2013-4-14,30.0,25.3,20.0,29.0,12.3,1.0,94,62,32,29.84,29.44,7,1,23,0.03
2013-4-15,25.1,20.1,15.1,21.0,16.7,11.0,91,86,55,30.10,29.80,4,0,10,0.00
2013-4-16,26.0,20.2,12.9,21.0,17.2,11.0,93,88,76,30.13,30.00,0,0,0,0.00
2013-4-17,27.7,17.4,2.5,20.0,13.7,-1.0,94,86,72,30.28,30.02,0,0,0,0.00
2013-4-18,27.7,14.0,-6.9,10.0,0.9,-11.0,88,60,34,30.46,30.26,0,0,0,0.00
2013-4-19,44.1,30.7,20.8,21.0,13.3,3.0,76,50,33,30.43,30.03,5,1,13,0.08
2013-4-20,45.8,32.2,19.3,32.0,23.3,15.0,89,71,38,30.07,29.94,4,1,10,0.09
2013-4-21,46.6,35.3,24.0,28.0,20.4,17.0,92,57,33,30.10,30.00,12,2,14,0.01
2013-4-22,38.2,25.7,12.3,31.0,20.9,10.0,92,82,59,30.28,29.90,6,0,10,0.06
2013-4-23,28.8,17.2,6.1,20.0,11.2,3.0,89,78,59,30.43,30.23,0,0,0,0.01
2013-4-24,40.6,24.3,3.7,16.0,8.5,0.0,89,57,23,30.45,30.39,0,0,0,0.07
2013-4-25,53.0,33.4,10.6,24.0,9.8,2.0,78,44,15,30.39,30.04,4,1,16,0.07
2013-4-26,53.6,37.1,21.5,26.0,16.3,10.0,79,50,18,30.30,30.14,4,1,10,0.00
2013-4-27,57.6,41.0,24.1,22.0,15.1,3.0,78,43,11,30.30,30.08,6,1,11,0.00
2013-4-28,61.1,47.4,28.8,32.0,21.5,17.0,71,39,19,30.08,29.81,5,1,15,0.00
2013-4-29,63.0,50.6,30.4,32.0,22.4,15.0,87,39,16,29.84,29.48,17,2,27,0.00
2013-4-30,52.8,42.8,30.7,36.0,29.0,19.0,96,63,28,29.80,29.45,7,1,16,0.10
2013-5-1,30.2,22.7,9.2,29.0,19.7,7.0,95,88,75,30.70,29.80,0,0,0,0.00
2013-5-2,36.1,19.7,2.0,26.0,14.4,-1.0,93,80,60,30.95,30.69,0,0,0,0.18
2013-5-3,53.0,34.8,15.6,28.0,21.2,12.0,91,63,28,30.69,30.19,3,0,9,0.65
2013-5-4,46.9,33.7,21.1,29.0,24.9,19.0,93,72,44,30.28,30.11,5,0,8,0.00
2013-5-5,48.3,34.9,21.8,35.0,26.0,19.0,96,73,40,30.28,30.11,3,0,7,0.02
2013-5-6,52.6,40.3,28.2,34.0,30.2,27.0,97,71,41,30.13,29.92,8,0,8,0.01
2013-5-7,57.6,44.4,29.5,37.0,30.1,22.0,94,61,28,29.92,29.82,8,1,14,0.02
2013-5-8,48.8,36.1,28.8,39.0,33.1,28.0,97,89,59,30.12,29.85,5,0,10,0.32
2013-5-9,42.4,35.1,29.4,39.0,33.7,29.0,98,94,82,30.26,30.11,3,0,6,1.00
2013-5-10,50.3,38.2,26.5,38.0,31.2,26.0,99,78,48,30.37,30.24,5,0,10,0.04
2013-5-11,58.0,41.2,28.1,44.0,32.4,26.0,97,74,30,30.41,30.22,6,1,12,0.03
2013-5-12,65.8,51.2,33.3,35.0,28.4,22.0,92,48,20,30.28,30.03,7,2,11,0.00
2013-5-13,71.3,58.5,42.8,38.0,31.1,26.0,71,39,19,30.02,29.83,6,1,11,0.00
2013-5-14,71.7,55.1,40.8,47.0,34.2,26.0,82,50,18,29.86,29.75,6,1,13,0.08
2013-5-15,67.2,50.4,37.2,43.0,36.2,32.0,86,62,28,29.81,29.75,5,1,9,0.00
2013-5-16,65.0,52.5,40.0,38.0,33.7,28.0,87,53,27,29.78,29.67,8,1,13,0.00
2013-5-17,72.5,54.1,32.7,38.0,24.5,11.0,90,42,11,29.78,29.64,10,1,13,0.00
2013-5-18,58.7,49.8,38.1,36.0,24.7,15.0,68,39,21,29.72,29.59,14,1,21,0.00
2013-5-19,54.8,43.7,34.2,31.0,26.1,23.0,73,52,30,29.75,29.65,10,2,19,0.00
2013-5-20,53.2,43.9,35.4,34.0,27.8,21.0,88,56,36,29.92,29.75,6,1,15,0.00
2013-5-21,56.9,44.2,32.4,29.0,22.6,16.0,74,45,25,29.94,29.82,5,1,12,0.00
2013-5-22,62.8,47.1,29.0,42.0,31.8,24.0,95,60,26,29.94,29.82,5,1,10,0.15
2013-5-23,51.0,45.0,40.7,46.0,43.0,40.0,98,93,83,29.94,29.84,3,0,6,0.01
2013-5-24,68.9,52.2,33.3,42.0,32.2,20.0,98,55,16,29.97,29.82,7,1,10,0.00
2013-5-25,71.8,54.3,31.4,37.0,24.8,7.0,94,44,8,29.88,29.76,4,1,10,0.00
2013-5-26,72.6,57.8,40.4,35.0,21.9,10.0,65,28,10,29.78,29.63,4,1,11,0.00
2013-5-27,69.4,56.6,38.3,28.0,18.1,5.0,64,25,12,29.67,29.54,6,1,17,0.00
2013-5-28,63.3,50.0,31.1,40.0,28.8,21.0,79,48,22,29.63,29.48,5,1,9,0.00
2013-5-29,53.0,44.2,36.4,39.0,30.6,23.0,94,61,38,29.57,29.40,9,2,23,0.17
2013-5-30,51.8,44.3,37.9,29.0,21.9,17.0,65,42,28,29.76,29.50,13,4,31,0.00
2013-5-31,54.0,45.7,37.5,19.0,14.6,8.0,47,29,21,29.93,29.69,19,4,26,0.00
2013-6-1,55.7,46.1,35.6,35.0,28.5,15.0,82,52,32,30.12,29.93,4,1,13,0.00
2013-6-2,73.2,51.5,27.2,34.0,26.7,15.0,91,49,13,30.11,29.73,5,1,12,0.00
2013-6-3,72.6,58.2,40.8,35.0,24.6,18.0,58,29,17,29.73,29.55,10,2,16,0.00
2013-6-4,61.6,46.8,30.6,45.0,36.6,20.0,93,69,51,30.04,29.71,4,0,11,0.02
2013-6-5,54.3,42.8,37.4,44.0,39.4,37.0,97,88,61,30.06,29.97,3,0,6,0.04
2013-6-6,62.2,48.6,31.9,41.0,35.0,30.0,94,64,33,30.07,29.98,4,1,8,0.00
2013-6-7,68.8,51.2,33.7,49.0,35.6,29.0,92,61,25,30.04,29.69,6,1,11,0.11
2013-6-8,67.3,58.7,40.0,48.0,36.8,28.0,83,47,25,29.77,29.55,11,2,21,0.00
2013-6-9,78.5,58.0,34.8,36.0,30.5,23.0,91,46,13,29.90,29.77,5,1,12,0.00
2013-6-10,83.1,66.2,47.2,39.0,30.0,21.0,54,30,10,29.80,29.59,4,1,14,0.00
2013-6-11,79.7,66.8,48.3,33.0,20.2,10.0,52,20,7,29.67,29.56,10,2,16,0.00
2013-6-12,78.0,64.7,45.2,39.0,27.7,15.0,49,27,16,29.81,29.66,5,1,22,0.00
2013-6-13,81.7,61.3,41.6,44.0,35.1,25.0,78,46,13,29.81,29.65,6,1,14,0.00
2013-6-14,78.4,60.7,41.7,40.0,31.3,9.0,75,42,8,29.75,29.64,5,1,11,0.00
2013-6-15,75.3,55.4,36.2,46.0,40.7,19.0,93,62,12,29.89,29.72,5,1,12,0.00
2013-6-16,69.7,55.5,41.5,46.0,34.4,24.0,84,49,20,29.99,29.84,5,1,14,0.03
2013-6-17,67.1,53.2,35.9,49.0,38.3,31.0,88,60,31,30.00,29.89,4,0,9,0.02
2013-6-18,71.5,55.3,37.1,49.0,41.0,36.0,96,63,30,29.98,29.73,4,0,12,0.00
2013-6-19,79.4,61.0,35.8,45.0,24.5,1.0,94,40,6,29.81,29.54,6,1,11,0.00
2013-6-20,74.2,57.8,36.9,31.0,23.8,14.0,53,30,13,29.74,29.59,4,1,13,0.00
2013-6-21,79.3,60.7,36.6,41.0,22.7,8.0,80,34,7,29.73,29.62,6,1,14,0.00
2013-6-22,73.3,56.3,36.9,42.0,31.0,19.0,84,44,14,29.73,29.55,5,1,18,0.00
2013-6-23,70.1,55.2,36.8,46.0,33.0,22.0,61,44,24,29.82,29.66,4,1,10,0.00
2013-6-24,78.1,60.1,36.4,42.0,23.6,11.0,85,35,8,29.76,29.59,5,1,13,0.00
2013-6-25,74.0,63.9,47.8,35.0,28.4,21.0,50,27,21,29.77,29.57,6,1,15,0.00
2013-6-26,82.7,63.3,40.3,39.0,31.1,26.0,70,36,14,29.91,29.77,6,1,10,0.00
2013-6-27,85.2,66.6,46.5,39.0,32.5,16.0,59,33,8,29.99,29.88,6,1,10,0.00
2013-6-28,83.4,64.6,44.9,54.0,42.5,28.0,91,50,14,29.98,29.85,5,0,11,0.02
2013-6-29,75.2,56.8,43.4,58.0,48.1,41.0,95,76,36,30.00,29.88,4,0,8,0.19
2013-6-30,70.7,56.9,48.2,55.0,49.9,46.0,96,79,47,30.01,29.90,2,0,7,0.02
2013-7-1,66.7,52.8,38.4,53.0,46.5,38.0,98,81,43,30.14,29.99,2,0,8,0.32
2013-7-2,69.8,54.0,39.7,56.0,45.6,39.0,99,77,38,30.11,29.97,4,0,9,0.08
2013-7-3,76.9,55.7,36.5,52.0,42.9,36.0,99,70,27,29.99,29.77,6,0,8,0.09
2013-7-4,74.9,59.1,43.6,49.0,42.9,37.0,93,60,28,29.84,29.74,3,0,8,0.00
2013-7-5,77.9,58.9,45.9,55.0,47.7,41.0,95,69,30,29.75,29.59,6,0,10,0.12
2013-7-6,75.3,58.5,46.8,54.0,47.2,42.0,97,71,33,29.79,29.68,6,1,10,0.13
2013-7-7,77.2,61.7,46.9,57.0,46.8,40.0,93,63,27,29.82,29.73,7,1,18,0.10
2013-7-8,80.0,64.0,51.3,49.0,42.2,34.0,77,48,25,29.87,29.78,6,1,11,0.01
2013-7-9,81.8,65.2,47.8,43.0,36.4,28.0,73,41,14,29.94,29.84,6,0,10,0.00
2013-7-10,77.6,60.6,42.8,57.0,44.9,38.0,87,60,32,29.95,29.78,4,0,9,0.03
2013-7-11,85.0,66.2,45.5,51.0,42.5,34.0,91,50,18,29.90,29.62,3,0,10,0.00
2013-7-12,78.7,63.6,54.4,57.0,48.4,40.0,93,61,30,29.76,29.56,11,1,11,0.09
2013-7-13,79.5,60.5,50.6,56.0,50.6,44.0,97,75,31,29.92,29.76,6,0,9,0.27
2013-7-14,67.2,55.3,45.1,56.0,51.8,45.0,99,89,61,30.03,29.87,3,0,8,0.40
2013-7-15,69.6,57.0,50.4,59.0,53.9,50.0,99,90,65,30.01,29.86,4,0,7,0.02
2013-7-16,70.3,56.7,40.2,52.0,45.9,40.0,99,71,39,30.02,29.89,4,0,8,0.00
2013-7-17,76.7,59.7,42.1,54.0,47.3,41.0,97,68,38,30.02,29.89,3,0,8,0.00
2013-7-18,78.8,58.1,48.7,54.0,50.0,45.0,96,78,34,29.97,29.82,5,0,13,0.35
2013-7-19,71.4,58.2,47.1,56.0,51.6,46.0,99,81,48,29.97,29.86,4,0,8,0.00
2013-7-20,78.7,57.3,41.5,55.0,45.7,39.0,93,71,26,29.88,29.75,3,0,9,0.00
2013-7-21,81.2,61.7,41.1,48.0,37.0,19.0,95,49,10,29.77,29.68,8,1,12,0.00
2013-7-22,83.3,64.3,44.3,48.0,27.7,8.0,60,33,6,29.79,29.69,6,1,10,0.00
2013-7-23,83.2,62.4,44.5,51.0,34.9,9.0,82,42,6,29.89,29.73,5,0,10,0.00
2013-7-24,75.9,57.6,45.7,56.0,50.5,44.0,96,79,47,29.95,29.78,5,0,9,0.17
2013-7-25,65.8,54.5,47.4,53.0,49.6,44.0,96,85,49,30.08,29.84,2,0,7,0.19
2013-7-26,71.4,56.2,40.8,53.0,45.2,40.0,99,71,35,30.14,29.99,2,0,6,0.02
2013-7-27,76.6,56.1,42.0,54.0,46.0,35.0,95,73,25,30.00,29.80,4,0,10,0.01
2013-7-28,67.4,54.9,48.4,55.0,51.7,47.0,99,89,55,29.84,29.68,4,0,8,0.04
2013-7-29,71.8,52.9,44.0,51.0,46.3,43.0,96,80,40,30.02,29.76,7,0,8,0.10
2013-7-30,75.9,61.1,45.8,47.0,43.2,38.0,90,56,27,30.06,29.98,5,1,17,0.02
2013-7-31,79.5,60.0,43.0,50.0,43.1,35.0,89,59,23,30.08,29.93,4,1,13,0.00
2013-8-1,77.1,60.7,42.9,50.0,42.3,36.0,94,57,23,30.00,29.76,6,1,10,0.00
2013-8-2,81.9,65.4,48.2,46.0,41.4,35.0,77,47,19,29.77,29.71,6,1,15,0.00
2013-8-3,80.8,62.8,49.6,56.0,44.9,37.0,92,57,24,29.93,29.75,6,1,12,0.01
2013-8-4,78.4,60.1,43.8,48.0,40.9,30.0,93,55,18,29.92,29.84,4,1,12,0.00
2013-8-5,77.7,58.1,44.1,55.0,42.2,36.0,81,59,23,29.88,29.82,3,0,10,0.02
2013-8-6,76.1,58.0,42.2,45.0,37.5,29.0,85,52,18,29.88,29.80,8,1,11,0.01
2013-8-7,64.4,53.7,40.7,47.0,41.1,36.0,86,64,42,29.90,29.82,3,0,8,0.00
2013-8-8,65.7,52.1,38.5,53.0,41.8,33.0,86,69,46,30.06,29.89,5,0,11,0.00
2013-8-9,66.6,49.3,37.7,53.0,42.8,35.0,97,80,42,30.12,29.99,3,0,9,0.38
2013-8-10,74.7,54.7,37.3,52.0,41.0,33.0,99,67,26,30.16,30.01,8,0,9,0.01
2013-8-11,65.6,54.8,44.6,52.0,43.7,40.0,93,68,40,30.03,29.94,2,0,8,0.18
2013-8-12,68.0,52.8,38.3,48.0,43.3,37.0,97,74,38,30.11,30.00,6,0,9,0.43
2013-8-13,60.9,49.9,39.2,52.0,45.0,39.0,99,84,57,30.13,30.01,3,0,6,0.11
2013-8-14,70.5,50.6,37.0,53.0,40.7,34.0,97,74,28,30.14,29.97,6,0,10,0.07
2013-8-15,76.3,55.6,38.3,46.0,36.2,26.0,90,56,16,30.07,29.97,4,1,14,0.01
2013-8-16,77.2,57.9,38.6,48.0,37.2,27.0,89,54,16,30.04,29.96,3,0,8,0.00
2013-8-17,83.3,59.5,40.5,43.0,33.5,19.0,85,48,10,30.02,29.85,7,0,7,0.00
2013-8-18,83.7,61.6,44.3,49.0,37.9,30.0,73,46,14,29.95,29.84,7,1,8,0.00
2013-8-19,81.5,60.7,45.1,47.0,38.7,30.0,78,50,18,29.91,29.81,5,1,8,0.00
2013-8-20,84.6,62.4,44.4,45.0,36.3,28.0,75,44,14,29.89,29.80,5,0,9,0.00
2013-8-21,77.6,61.8,47.9,53.0,43.1,38.0,76,53,26,29.90,29.80,4,1,9,0.00
2013-8-22,73.9,55.4,45.2,57.0,49.1,42.0,96,81,42,30.01,29.90,4,0,9,1.06
2013-8-23,76.2,58.3,47.1,56.0,49.0,44.0,95,75,32,30.01,29.78,4,0,14,0.11
2013-8-24,75.2,57.2,42.6,55.0,46.5,39.0,98,73,32,29.95,29.81,5,0,15,0.10
2013-8-25,71.1,56.0,43.5,56.0,48.6,43.0,98,80,40,29.98,29.92,3,0,5,0.06
2013-8-26,79.0,60.8,46.3,55.0,49.7,45.0,97,72,32,29.98,29.87,14,1,21,0.24
2013-8-27,74.6,56.0,45.2,62.0,52.3,45.0,99,89,41,29.95,29.88,2,0,5,0.69
2013-8-28,78.3,59.5,46.0,59.0,49.1,36.0,99,73,31,29.97,29.90,6,0,12,0.00
2013-8-29,79.9,59.5,45.5,54.0,46.1,41.0,92,66,26,30.01,29.94,6,0,9,0.02
2013-8-30,79.2,58.9,46.2,59.0,48.7,43.0,92,73,28,30.02,29.91,3,0,5,0.05
2013-8-31,77.2,56.2,45.5,58.0,47.7,42.0,96,77,30,29.99,29.85,3,0,9,0.20
2013-9-1,67.3,53.4,43.2,57.0,50.2,42.0,98,89,67,30.02,29.94,3,0,6,0.38
2013-9-2,77.2,59.2,45.7,56.0,48.7,45.0,98,73,34,30.00,29.84,10,0,11,0.00
2013-9-3,81.0,64.5,49.2,55.0,47.5,40.0,90,59,25,29.90,29.81,3,1,10,0.00
2013-9-4,80.7,58.2,48.3,59.0,50.5,46.0,95,80,30,30.02,29.86,4,0,10,0.09
2013-9-5,75.4,59.9,46.3,59.0,50.2,45.0,96,74,40,30.04,29.95,3,0,8,0.00
2013-9-6,80.0,59.9,48.8,56.0,47.6,40.0,86,66,31,29.97,29.88,5,1,14,0.05
2013-9-7,78.4,60.4,44.5,52.0,45.8,42.0,90,64,28,29.95,29.82,5,0,8,0.00
2013-9-8,74.7,57.1,43.8,53.0,46.3,41.0,89,70,33,29.84,29.71,5,0,8,0.01
2013-9-9,67.2,54.4,45.6,56.0,49.4,43.0,97,84,54,29.83,29.69,2,0,6,0.79
2013-9-10,54.3,51.5,50.0,53.0,50.7,49.0,98,97,94,30.02,29.79,1,0,4,0.91
2013-9-11,53.8,51.5,49.8,53.0,51.1,49.0,99,98,96,30.05,30.00,2,0,3,3.66
2013-9-12,52.9,50.1,49.1,53.0,49.9,49.0,99,99,98,30.13,30.05,1,0,3,4.33
2013-9-15,50.3,47.6,45.5,50.0,47.1,45.0,99,98,91,30.12,29.93,2,0,3,0.77
2013-9-16,65.7,50.4,41.4,54.0,46.0,40.0,99,87,50,30.11,29.91,4,0,9,0.01
2013-9-17,71.8,53.0,38.0,49.0,40.3,31.0,97,68,23,29.98,29.72,5,1,12,0.00
2013-9-18,67.4,53.9,42.9,47.0,41.7,37.0,95,66,35,29.76,29.63,9,1,18,0.08
2013-9-19,53.5,44.7,33.6,43.0,39.7,33.0,97,83,56,30.10,29.73,4,0,9,0.07
2013-9-20,64.9,44.4,29.8,44.0,36.6,29.0,99,78,37,30.16,30.00,4,0,8,0.01
2013-9-21,70.0,55.0,37.1,43.0,34.4,28.0,91,50,24,30.02,29.66,11,1,14,0.00
2013-9-22,63.1,49.0,39.0,51.0,40.2,34.0,97,74,41,29.66,29.44,8,1,19,0.28
2013-9-23,52.9,46.3,39.3,41.0,29.9,22.0,97,56,36,29.94,29.33,22,3,22,0.14
2013-9-24,63.8,49.8,29.2,33.0,21.2,0.0,85,41,9,30.07,29.76,9,2,18,0.00
2013-9-25,70.7,59.1,41.9,31.0,20.7,4.0,63,25,11,29.75,29.25,8,2,25,0.00
2013-9-26,60.4,45.2,34.0,43.0,36.1,28.0,96,73,49,29.66,29.30,4,0,7,0.00
2013-9-27,42.7,38.5,32.5,42.0,34.6,18.0,98,87,52,29.94,29.62,11,1,27,0.11
2013-9-28,51.5,41.4,27.4,28.0,21.3,13.0,67,46,32,30.18,29.92,6,2,18,0.00
2013-9-29,60.8,47.0,29.6,29.0,21.3,16.0,79,41,20,30.12,29.78,9,2,36,0.00
2013-9-30,68.8,57.2,48.3,34.0,24.6,20.0,45,29,22,29.86,29.61,10,3,24,0.00
2013-10-1,64.1,49.4,36.4,43.0,34.0,24.0,91,58,35,29.86,29.71,5,1,8,0.00
2013-10-2,66.6,47.4,33.3,38.0,31.4,21.0,89,60,20,29.91,29.80,5,1,9,0.00
2013-10-3,61.7,46.6,31.6,41.0,33.3,22.0,96,65,26,29.79,29.53,7,1,15,0.31
2013-10-4,38.2,29.9,22.7,37.0,25.6,14.0,97,84,66,30.16,29.56,4,0,11,0.21
2013-10-5,45.5,34.0,24.0,18.0,10.9,-1.0,75,42,18,30.35,30.15,10,2,21,0.10
2013-10-6,60.7,43.8,28.6,31.0,22.4,2.0,80,47,23,30.30,30.17,5,1,15,0.00
2013-10-7,68.4,49.5,27.4,26.0,15.0,1.0,78,36,8,30.19,29.86,6,1,15,0.00
2013-10-8,66.4,55.2,38.3,31.0,18.1,6.0,68,26,13,29.85,29.50,8,2,28,0.00
2013-10-9,57.2,46.1,33.4,38.0,31.6,22.0,91,60,33,29.80,29.59,5,1,12,0.00
2013-10-10,47.8,39.5,31.5,43.0,32.7,23.0,95,78,51,29.78,29.42,10,1,32,0.08
2013-10-11,47.4,38.8,31.5,29.0,25.6,21.0,87,60,39,30.01,29.39,16,4,35,0.42
2013-10-12,48.9,34.9,26.7,34.0,29.0,22.0,97,81,35,30.17,30.01,5,0,9,0.00
2013-10-13,56.6,38.2,25.4,40.0,30.7,25.0,97,78,37,30.19,29.90,5,0,9,0.03
2013-10-14,43.0,36.4,29.8,33.0,27.7,22.0,96,72,50,30.10,29.71,9,1,22,0.01
2013-10-15,29.9,27.1,24.7,28.0,25.2,23.0,95,92,86,30.30,30.10,3,0,4,0.00
2013-10-16,44.1,28.7,14.9,24.0,16.7,12.0,95,66,28,30.29,30.15,5,1,14,0.11
2013-10-17,43.7,32.1,24.0,28.0,21.6,15.0,95,68,35,30.17,30.01,6,1,12,0.00
2013-10-18,36.5,28.3,16.3,26.0,16.9,11.0,94,66,36,30.21,30.04,9,1,13,0.13
2013-10-19,51.4,39.7,23.2,20.0,16.1,10.0,75,41,19,30.20,29.88,16,3,25,0.06
2013-10-20,41.5,34.0,21.5,32.0,23.5,16.0,95,69,37,30.11,29.82,13,1,17,0.00
2013-10-21,46.7,31.2,16.0,27.0,20.5,14.0,96,69,35,30.33,30.11,5,1,11,0.12
2013-10-22,54.8,40.5,28.0,26.0,23.3,21.0,78,54,29,30.28,30.09,6,1,12,0.00
2013-10-23,58.2,37.3,26.1,32.0,24.5,18.0,90,65,22,30.27,30.11,7,1,10,0.00
2013-10-24,57.2,37.7,24.3,29.0,24.5,20.0,94,65,24,30.27,30.19,4,0,9,0.00
2013-10-25,59.9,39.3,26.3,29.0,23.4,18.0,83,59,21,30.28,30.12,3,0,10,0.00
2013-10-26,54.1,35.9,23.8,32.0,25.4,21.0,90,69,35,30.34,30.23,4,0,7,0.00
2013-10-27,54.2,40.1,28.2,24.0,20.9,17.0,74,49,25,30.22,29.89,9,1,15,0.00
2013-10-28,34.5,28.1,23.3,28.0,24.5,21.0,96,87,63,30.04,29.86,2,0,4,0.00
2013-10-29,50.1,30.8,19.7,31.0,24.3,17.0,96,82,28,30.08,29.89,6,1,12,0.00
2013-10-30,41.3,32.6,25.3,30.0,20.4,14.0,96,62,39,29.89,29.72,13,2,34,0.12
2013-10-31,41.9,33.3,25.4,21.0,14.3,7.0,71,47,26,29.92,29.79,12,3,18,0.00
2013-11-1,40.0,33.5,28.7,24.0,16.9,11.0,74,52,33,30.24,29.93,6,1,17,0.00
2013-11-2,54.0,39.9,21.1,18.0,3.4,-18.0,77,34,5,30.26,29.74,16,3,30,0.01
2013-11-3,51.0,43.1,27.4,27.0,11.4,-15.0,83,33,6,29.73,29.39,14,4,27,0.00
2013-11-4,32.3,26.8,18.0,20.0,12.1,-1.0,83,56,26,29.99,29.56,16,2,27,0.04
2013-11-5,30.5,22.4,15.2,17.0,5.0,-8.0,89,52,27,30.28,29.95,8,2,18,0.00
2013-11-6,36.4,29.9,21.7,15.0,10.0,-2.0,54,44,30,30.42,30.22,19,4,28,0.04
2013-11-7,50.3,38.8,21.8,19.0,17.1,15.0,76,44,26,30.46,29.95,9,2,25,0.00
2013-11-8,52.2,43.8,35.2,18.0,14.4,8.0,46,31,23,29.95,29.63,20,4,43,0.14
2013-11-9,53.0,40.9,28.1,21.0,18.1,16.0,70,42,26,30.16,29.93,10,2,13,0.00
2013-11-10,54.0,38.7,28.2,21.0,17.6,13.0,67,47,21,30.25,30.15,6,1,16,0.00
2013-11-11,57.0,37.2,21.3,27.0,19.1,6.0,94,56,14,30.57,30.20,6,1,13,0.00
2013-11-12,51.0,31.5,19.3,26.0,19.4,8.0,93,65,34,30.63,30.54,3,0,6,0.00
2013-11-13,55.7,38.5,21.2,16.0,10.2,4.0,59,35,13,30.54,30.04,11,2,18,0.00
2013-11-14,48.8,37.6,25.2,22.0,12.6,-5.0,72,40,11,30.04,29.73,8,2,20,0.00
2013-11-15,46.1,36.9,28.7,29.0,15.6,-2.0,93,48,17,29.73,29.37,10,2,21,0.01
2013-11-16,37.6,29.8,26.1,25.0,18.5,13.0,94,65,42,29.57,29.28,30,6,35,0.27
2013-11-17,37.0,28.0,23.2,21.0,14.3,10.0,90,58,34,30.17,29.53,28,4,48,0.74
2013-11-18,49.3,32.6,21.2,17.0,12.7,4.0,66,47,18,30.31,30.13,10,2,20,0.00
2013-11-19,44.5,38.0,22.0,28.0,17.4,1.0,77,46,17,30.12,29.72,10,2,23,0.00
2013-11-20,42.8,36.1,27.6,27.0,21.0,18.0,87,56,40,29.91,29.73,7,1,16,0.00
2013-11-21,27.1,11.9,3.9,24.0,8.1,0.0,91,84,71,30.77,29.89,2,0,5,0.00
2013-11-22,34.7,19.7,9.0,23.0,13.9,6.0,90,79,34,30.91,30.77,0,0,1,0.01
2013-11-23,30.0,19.6,9.7,22.0,15.8,8.0,92,85,69,30.77,30.49,2,0,3,0.00
2013-11-24,41.7,28.3,14.0,35.0,25.1,12.0,96,88,51,30.48,30.08,0,0,3,0.18
2013-11-25,35.9,25.6,13.5,21.0,18.3,11.0,90,75,54,30.43,30.13,3,0,4,0.04
2013-11-26,39.6,25.1,13.9,18.0,13.9,11.0,87,65,35,30.56,30.43,7,0,8,0.05
2013-11-27,50.8,30.7,15.8,21.0,15.0,11.0,82,57,21,30.44,30.24,5,1,14,0.09
2013-11-28,48.5,28.2,16.4,22.0,16.0,12.0,85,64,30,30.29,30.20,4,0,5,0.03
2013-11-29,46.0,33.9,22.9,18.0,16.1,14.0,71,50,29,30.27,30.15,12,2,16,0.00
2013-11-30,44.0,33.0,22.4,15.0,13.0,8.0,69,46,26,30.25,30.18,7,2,16,0.00
2013-12-1,37.2,32.6,25.6,24.0,17.5,13.0,70,54,42,30.23,29.83,25,6,41,0.55
2013-12-2,36.9,33.8,31.6,24.0,22.0,20.0,72,62,54,29.94,29.60,22,8,42,0.39
2013-12-3,34.4,24.2,2.3,29.0,16.9,-2.0,93,75,55,29.64,29.42,7,1,18,0.00
2013-12-4,5.5,-2.0,-14.8,-2.0,-6.7,-19.0,84,80,69,30.40,29.65,0,0,0,0.00
2013-12-5,17.9,-5.1,-17.6,5.0,-12.0,-22.0,84,74,38,30.55,30.36,0,0,0,0.00
2013-12-6,9.8,-0.4,-14.8,-3.0,-8.8,-19.0,82,69,55,30.62,30.52,8,0,8,0.00
2013-12-7,20.5,10.4,1.8,6.0,1.1,-4.0,84,67,48,30.53,29.92,6,0,14,0.00
2013-12-8,22.0,7.7,-4.9,7.0,-1.7,-10.0,84,67,33,30.22,29.87,6,1,18,0.00
2013-12-9,18.5,7.9,-6.3,-3.0,-11.1,-20.0,86,45,19,30.49,30.23,16,4,39,0.00
2013-12-10,24.4,20.3,14.9,10.0,4.7,-3.0,67,51,38,30.42,30.21,25,9,42,0.00
2013-12-11,38.2,21.8,4.8,7.0,-1.0,-15.0,86,45,10,30.52,30.33,10,1,23,0.00
2013-12-12,50.0,28.1,11.8,11.0,3.3,-2.0,61,40,12,30.52,30.07,12,2,24,0.00
2013-12-13,39.7,25.8,15.5,12.0,7.0,1.0,63,47,26,30.25,29.93,9,1,18,0.00
2013-12-14,34.3,24.3,7.7,15.0,7.1,2.0,77,50,30,30.37,30.25,8,1,14,0.00
2013-12-15,47.5,35.4,26.6,14.0,10.2,-1.0,60,37,17,30.34,30.10,20,4,34,0.16
2013-12-16,40.8,37.2,34.5,16.0,12.0,4.0,47,36,25,30.22,30.07,23,10,46,0.87
2013-12-17,48.2,39.2,28.0,14.0,10.4,5.0,53,31,19,30.29,30.05,8,2,22,0.00
2013-12-18,48.2,39.2,27.6,13.0,9.1,5.0,53,31,19,30.05,29.68,14,3,31,0.04
2013-12-19,46.9,34.7,15.4,24.0,15.7,10.0,93,51,26,29.67,29.43,15,3,25,0.01
2013-12-20,32.8,23.1,9.6,24.0,14.4,5.0,95,71,47,29.75,29.61,12,1,19,0.00
2013-12-21,26.4,16.0,6.4,19.0,10.3,2.0,91,79,51,30.09,29.66,2,0,4,0.00
2013-12-22,23.0,15.4,1.1,12.0,6.2,-2.0,90,69,46,30.39,30.09,14,2,23,0.00
2013-12-23,37.8,24.4,8.6,19.0,12.7,5.0,89,63,44,30.46,30.21,17,4,28,0.00
2013-12-24,33.3,24.9,8.7,25.0,13.2,-1.0,88,62,47,30.34,30.08,26,3,32,0.00
2013-12-25,34.2,19.9,3.1,7.0,2.0,-3.0,77,49,28,30.60,30.33,16,1,16,0.02
2013-12-26,40.1,27.2,13.7,11.0,6.4,-4.0,75,43,24,30.48,30.38,13,1,17,0.00
2013-12-27,51.4,27.9,15.5,21.0,15.4,9.0,83,64,26,30.51,30.25,3,0,6,0.01
2013-12-28,42.9,27.6,14.4,20.0,16.2,11.0,91,65,37,30.23,29.94,6,1,17,0.00
2013-12-29,29.6,19.0,-0.3,15.0,6.2,-4.0,90,62,29,30.30,30.10,13,2,35,0.04
2013-12-30,36.4,27.7,20.8,11.0,7.7,0.0,63,44,23,30.34,30.15,12,3,27,0.00
2013-12-31,37.9,32.5,29.0,19.0,15.7,11.0,63,51,41,30.13,29.92,22,5,38,0.00
2014-1-1,30.8,23.7,10.6,23.0,11.9,5.0,85,62,39,30.31,29.90,7,1,19,0.00
2014-1-2,42.3,32.3,15.3,16.0,8.3,2.0,59,38,20,30.37,30.01,14,2,27,0.00